Location: Gradaro
(45.0833°N, 10.8833°E)
Time: 14:21:59
(UTC+00:00)

Cosmos 1943 - Pass Details

Date: 29 November 2020
Orbit: 832 x 851 km, 71.0° (Epoch: 22 January)

Event Time Altitude Azimuth Distance (km) Brightness Sun altitude
Exits shadow 03:36:33 53° 153° (SSE) 1,041 3.7 -30.4°
Drops below altitude 10° 03:40:48 10° 155° (SSE) 2,470 5.9 -29.7°
Sets 03:43:14 0° 156° (SSE) 3,400 6.7 -29.3°
